Time,TemperatureF,DewpointF,PressureIn,WindDirection,WindDirectionDegrees,WindSpeedMPH,WindSpeedGustMPH,Humidity,HourlyPrecipIn,Conditions,Clouds,dailyrainin,SoftwareType,DateUTC
2013-02-25 00:00:00,42.4,29.0,30.04,NNE,22,0.0,0.0,58,0.00,,,0.00,Meteorologica,2013-02-25 05:00:00,
2013-02-25 00:01:00,42.3,28.9,30.03,NNE,22,0.0,0.0,58,0.00,,,0.00,Meteorologica,2013-02-25 05:01:00,
2013-02-25 00:02:00,42.5,29.1,30.03,NNE,22,0.0,0.0,58,0.00,,,0.00,Meteorologica,2013-02-25 05:02:00,
2013-02-25 00:07:00,42.1,29.1,30.03,NNE,22,0.0,0.0,59,0.00,,,0.00,Meteorologica,2013-02-25 05:07:00,
2013-02-25 00:12:00,41.9,29.5,30.03,NNE,22,0.0,0.0,60,0.00,,,0.00,Meteorologica,2013-02-25 05:12:00,
2013-02-25 00:17:00,41.6,29.7,30.03,NNE,22,0.0,0.0,62,0.00,,,0.00,Meteorologica,2013-02-25 05:17:00,
2013-02-25 00:22:00,41.1,29.6,30.03,NNE,22,0.0,0.0,63,0.00,,,0.00,Meteorologica,2013-02-25 05:22:00,
2013-02-25 00:27:00,40.9,29.3,30.03,NNE,22,0.0,0.0,62,0.00,,,0.00,Meteorologica,2013-02-25 05:27:00,
2013-02-25 00:32:00,40.3,29.3,30.03,NE,49,0.1,0.0,64,0.00,,,0.00,Meteorologica,2013-02-25 05:32:00,
2013-02-25 00:37:00,40.1,29.4,30.03,NNE,21,2.9,2.9,65,0.00,,,0.00,Meteorologica,2013-02-25 05:37:00,
2013-02-25 00:42:00,40.0,29.0,30.02,NNE,21,3.4,4.0,64,0.00,,,0.00,Meteorologica,2013-02-25 05:42:00,
2013-02-25 00:47:00,40.3,28.9,30.01,NNE,33,3.3,4.7,63,0.00,,,0.00,Meteorologica,2013-02-25 05:47:00,
2013-02-25 00:52:00,40.5,28.8,30.01,North,8,3.4,5.1,62,0.00,,,0.00,Meteorologica,2013-02-25 05:52:00,
2013-02-25 00:57:00,40.7,28.6,30.01,NNE,18,3.3,6.1,61,0.00,,,0.00,Meteorologica,2013-02-25 05:57:00,
2013-02-25 01:02:00,40.8,28.6,30.00,NNE,21,0.2,5.5,61,0.00,,,0.00,Meteorologica,2013-02-25 06:02:00,
2013-02-25 01:07:00,40.8,28.4,30.01,North,7,2.7,5.0,60,0.00,,,0.00,Meteorologica,2013-02-25 06:07:00,
2013-02-25 01:12:00,41.0,28.3,30.01,North,359,2.9,5.1,60,0.00,,,0.00,Meteorologica,2013-02-25 06:12:00,
2013-02-25 01:17:00,41.0,27.9,30.01,North,8,0.7,5.5,59,0.00,,,0.00,Meteorologica,2013-02-25 06:17:00,
2013-02-25 01:22:00,41.2,27.9,30.01,NNE,26,3.0,5.0,58,0.00,,,0.00,Meteorologica,2013-02-25 06:22:00,
2013-02-25 01:27:00,41.3,27.8,30.00,North,359,4.6,5.4,58,0.00,,,0.00,Meteorologica,2013-02-25 06:27:00,
2013-02-25 01:32:00,41.3,27.9,30.00,NNE,19,2.4,6.3,58,0.00,,,0.00,Meteorologica,2013-02-25 06:32:00,
2013-02-25 01:37:00,41.3,27.9,30.00,NNE,15,4.4,5.4,58,0.00,,,0.00,Meteorologica,2013-02-25 06:37:00,
2013-02-25 01:42:00,41.3,27.8,30.00,NNE,26,3.8,6.4,58,0.00,,,0.00,Meteorologica,2013-02-25 06:42:00,
2013-02-25 01:47:00,41.3,28.1,29.99,NNE,14,2.9,6.7,59,0.00,,,0.00,Meteorologica,2013-02-25 06:47:00,
2013-02-25 01:52:00,41.3,27.8,29.99,North,7,3.8,5.9,58,0.00,,,0.00,Meteorologica,2013-02-25 06:52:00,
2013-02-25 01:57:00,41.2,27.5,30.00,North,352,3.4,6.6,57,0.00,,,0.00,Meteorologica,2013-02-25 06:57:00,
2013-02-25 02:02:00,41.4,28.0,30.00,NNE,18,3.8,5.7,58,0.00,,,0.00,Meteorologica,2013-02-25 07:02:00,
2013-02-25 02:07:00,41.3,27.7,30.00,NNE,12,2.3,5.9,58,0.00,,,0.00,Meteorologica,2013-02-25 07:07:00,
2013-02-25 02:12:00,41.2,27.6,30.00,NNE,21,2.5,6.0,58,0.00,,,0.00,Meteorologica,2013-02-25 07:12:00,
2013-02-25 02:17:00,41.2,27.6,30.00,NNW,345,3.2,5.9,58,0.00,,,0.00,Meteorologica,2013-02-25 07:17:00,
2013-02-25 02:22:00,41.1,27.8,30.00,SE,128,1.9,6.0,58,0.00,,,0.00,Meteorologica,2013-02-25 07:22:00,
2013-02-25 02:27:00,41.1,27.6,30.00,NNE,25,3.0,5.6,58,0.00,,,0.00,Meteorologica,2013-02-25 07:27:00,
2013-02-25 02:32:00,41.0,27.5,30.00,NNE,27,0.1,6.1,58,0.00,,,0.00,Meteorologica,2013-02-25 07:32:00,
2013-02-25 02:37:00,40.9,27.4,30.00,NNW,345,2.1,4.2,58,0.00,,,0.00,Meteorologica,2013-02-25 07:37:00,
2013-02-25 02:42:00,41.0,27.7,30.00,NNE,28,0.9,5.5,58,0.00,,,0.00,Meteorologica,2013-02-25 07:42:00,
2013-02-25 02:47:00,40.8,27.4,30.00,NNE,27,2.4,4.3,58,0.00,,,0.00,Meteorologica,2013-02-25 07:47:00,
2013-02-25 02:52:00,40.7,27.4,29.99,North,6,3.6,4.8,58,0.00,,,0.00,Meteorologica,2013-02-25 07:52:00,
2013-02-25 02:57:00,40.7,27.4,30.00,North,10,3.1,4.8,58,0.00,,,0.00,Meteorologica,2013-02-25 07:57:00,
2013-02-25 03:02:00,40.7,27.2,30.00,ENE,64,2.0,4.8,58,0.00,,,0.00,Meteorologica,2013-02-25 08:02:00,
2013-02-25 03:07:00,40.7,27.2,30.00,NNE,14,3.2,3.7,58,0.00,,,0.00,Meteorologica,2013-02-25 08:07:00,
2013-02-25 03:12:00,40.6,26.9,29.99,North,9,4.0,6.2,57,0.00,,,0.00,Meteorologica,2013-02-25 08:12:00,
2013-02-25 03:17:00,40.6,27.1,29.99,NE,36,2.5,6.1,58,0.00,,,0.00,Meteorologica,2013-02-25 08:17:00,
2013-02-25 03:22:00,40.5,27.1,29.99,NNE,20,3.9,5.3,58,0.00,,,0.00,Meteorologica,2013-02-25 08:22:00,
2013-02-25 03:27:00,40.5,27.6,29.99,North,6,3.1,5.7,59,0.00,,,0.00,Meteorologica,2013-02-25 08:27:00,
2013-02-25 03:32:00,40.1,27.6,29.99,SE,128,3.6,6.7,60,0.00,,,0.00,Meteorologica,2013-02-25 08:32:00,
2013-02-25 03:37:00,40.2,27.6,29.99,North,11,3.2,5.4,60,0.00,,,0.00,Meteorologica,2013-02-25 08:37:00,
2013-02-25 03:42:00,40.3,27.7,30.00,NNE,15,1.6,5.7,60,0.00,,,0.00,Meteorologica,2013-02-25 08:42:00,
2013-02-25 03:47:00,40.3,27.6,29.99,NNE,13,3.7,6.5,60,0.00,,,0.00,Meteorologica,2013-02-25 08:47:00,
2013-02-25 03:52:00,40.2,27.5,29.98,NNE,27,3.5,6.7,60,0.00,,,0.00,Meteorologica,2013-02-25 08:52:00,
2013-02-25 03:57:00,40.4,27.8,29.99,NNE,23,2.5,5.7,60,0.00,,,0.00,Meteorologica,2013-02-25 08:57:00,
2013-02-25 04:02:00,40.2,27.1,29.99,NNE,12,3.5,5.5,59,0.00,,,0.00,Meteorologica,2013-02-25 09:02:00,
2013-02-25 04:07:00,40.4,27.4,30.00,NE,38,0.1,5.3,59,0.00,,,0.00,Meteorologica,2013-02-25 09:07:00,
2013-02-25 04:12:00,40.2,26.7,30.00,NNE,17,2.8,4.3,58,0.00,,,0.00,Meteorologica,2013-02-25 09:12:00,
2013-02-25 04:18:00,40.4,27.0,30.00,NNE,14,0.0,4.8,58,0.00,,,0.00,Meteorologica,2013-02-25 09:18:00,
2013-02-25 04:23:00,40.4,26.7,29.99,North,4,2.5,6.1,57,0.00,,,0.00,Meteorologica,2013-02-25 09:23:00,
2013-02-25 04:28:00,40.4,26.6,30.00,North,11,3.7,6.5,57,0.00,,,0.00,Meteorologica,2013-02-25 09:28:00,
2013-02-25 04:33:00,40.4,26.7,29.99,NNE,12,0.9,6.0,57,0.00,,,0.00,Meteorologica,2013-02-25 09:33:00,
2013-02-25 04:38:00,40.4,26.7,29.99,NE,35,1.3,6.8,57,0.00,,,0.00,Meteorologica,2013-02-25 09:38:00,
2013-02-25 04:43:00,40.5,26.5,29.99,NE,40,4.1,5.3,57,0.00,,,0.00,Meteorologica,2013-02-25 09:43:00,
2013-02-25 04:48:00,40.4,26.3,29.99,North,7,4.1,6.4,56,0.00,,,0.00,Meteorologica,2013-02-25 09:48:00,
2013-02-25 04:53:00,40.4,26.9,29.98,North,10,2.4,6.8,58,0.00,,,0.00,Meteorologica,2013-02-25 09:53:00,
2013-02-25 04:58:00,40.3,26.4,29.98,NE,44,3.7,6.4,57,0.00,,,0.00,Meteorologica,2013-02-25 09:58:00,
2013-02-25 05:03:00,40.1,27.0,29.98,NNE,21,4.0,7.2,59,0.00,,,0.00,Meteorologica,2013-02-25 10:03:00,
2013-02-25 05:08:00,40.0,26.7,29.98,NNE,19,5.2,7.7,58,0.00,,,0.00,Meteorologica,2013-02-25 10:08:00,
2013-02-25 05:13:00,40.0,26.2,29.98,NNE,13,4.5,7.6,57,0.00,,,0.00,Meteorologica,2013-02-25 10:13:00,
2013-02-25 05:18:00,40.0,26.6,29.98,North,359,5.3,8.5,58,0.00,,,0.00,Meteorologica,2013-02-25 10:18:00,
2013-02-25 05:23:00,40.0,26.7,29.97,WSW,245,5.1,6.8,58,0.00,,,0.00,Meteorologica,2013-02-25 10:23:00,
2013-02-25 05:28:00,40.0,26.6,29.98,North,9,1.3,7.8,58,0.00,,,0.00,Meteorologica,2013-02-25 10:28:00,
2013-02-25 05:33:00,39.8,26.5,29.98,NNE,19,4.4,6.4,58,0.00,,,0.00,Meteorologica,2013-02-25 10:33:00,
2013-02-25 05:38:00,40.0,26.9,29.98,North,2,0.8,7.1,59,0.00,,,0.00,Meteorologica,2013-02-25 10:38:00,
2013-02-25 05:43:00,40.0,27.0,29.98,NNE,23,3.2,4.5,59,0.00,,,0.00,Meteorologica,2013-02-25 10:43:00,
2013-02-25 05:48:00,39.8,26.8,29.98,North,7,1.7,5.9,59,0.00,,,0.00,Meteorologica,2013-02-25 10:48:00,
2013-02-25 05:53:00,39.9,26.6,29.99,NNE,32,4.3,7.9,58,0.00,,,0.00,Meteorologica,2013-02-25 10:53:00,
2013-02-25 05:58:00,39.8,26.9,29.98,NNE,32,2.0,6.2,59,0.00,,,0.00,Meteorologica,2013-02-25 10:58:00,
2013-02-25 06:03:00,39.7,26.5,29.98,NNE,17,2.8,5.1,58,0.00,,,0.00,Meteorologica,2013-02-25 11:03:00,
2013-02-25 06:08:00,39.7,26.6,29.98,NNE,17,3.3,6.1,59,0.00,,,0.00,Meteorologica,2013-02-25 11:08:00,
2013-02-25 06:13:00,39.6,26.7,29.98,NNE,22,3.7,6.1,59,0.00,,,0.00,Meteorologica,2013-02-25 11:13:00,
2013-02-25 06:18:00,39.6,26.6,29.98,NNE,31,3.3,8.0,59,0.00,,,0.00,Meteorologica,2013-02-25 11:18:00,
2013-02-25 06:23:00,39.7,26.8,29.99,NNE,16,3.3,5.6,59,0.00,,,0.00,Meteorologica,2013-02-25 11:23:00,
2013-02-25 06:28:00,39.6,26.9,30.00,NNE,19,3.5,6.8,59,0.00,,,0.00,Meteorologica,2013-02-25 11:28:00,
2013-02-25 06:33:00,39.7,26.7,30.00,NE,36,3.5,9.8,59,0.00,,,0.00,Meteorologica,2013-02-25 11:33:00,
2013-02-25 06:38:00,39.5,26.6,30.00,NE,39,4.7,5.5,59,0.00,,,0.00,Meteorologica,2013-02-25 11:38:00,
2013-02-25 06:43:00,39.6,26.9,29.99,NNE,27,3.2,6.4,59,0.00,,,0.00,Meteorologica,2013-02-25 11:43:00,
2013-02-25 06:48:00,39.5,26.9,29.99,NNE,21,2.6,6.6,60,0.00,,,0.00,Meteorologica,2013-02-25 11:48:00,
2013-02-25 06:53:00,39.5,27.1,30.00,North,357,2.9,6.9,60,0.00,,,0.00,Meteorologica,2013-02-25 11:53:00,
2013-02-25 06:58:00,39.3,27.2,30.00,NNE,28,0.3,6.3,61,0.00,,,0.00,Meteorologica,2013-02-25 11:58:00,
2013-02-25 07:03:00,39.3,27.2,30.00,North,4,1.9,4.7,61,0.00,,,0.00,Meteorologica,2013-02-25 12:03:00,
2013-02-25 07:08:00,39.1,27.3,30.00,NNE,28,1.3,4.1,62,0.00,,,0.00,Meteorologica,2013-02-25 12:08:00,
2013-02-25 07:13:00,39.3,27.6,30.01,NNE,25,2.3,4.7,62,0.00,,,0.00,Meteorologica,2013-02-25 12:13:00,
2013-02-25 07:18:00,39.1,27.3,30.01,NNE,13,2.8,4.5,62,0.00,,,0.00,Meteorologica,2013-02-25 12:18:00,
2013-02-25 07:23:00,39.0,27.4,30.01,NNE,14,3.7,4.0,62,0.00,,,0.00,Meteorologica,2013-02-25 12:23:00,
2013-02-25 07:28:00,39.0,27.7,30.01,NNE,33,2.0,6.4,63,0.00,,,0.00,Meteorologica,2013-02-25 12:28:00,
2013-02-25 07:33:00,38.8,27.4,30.02,NNE,20,3.1,6.4,63,0.00,,,0.00,Meteorologica,2013-02-25 12:33:00,
2013-02-25 07:38:00,38.8,27.5,30.02,NNE,15,2.2,5.8,63,0.00,,,0.00,Meteorologica,2013-02-25 12:38:00,
2013-02-25 07:43:00,38.8,27.5,30.01,NNE,14,3.7,5.3,63,0.00,,,0.00,Meteorologica,2013-02-25 12:43:00,
2013-02-25 08:00:00,39.0,27.8,30.03,NNE,21,0.0,5.0,63,0.00,,,0.00,Meteorologica,2013-02-25 13:00:00,
2013-02-25 08:05:00,38.9,27.8,30.03,NNE,21,1.6,4.9,63,0.00,,,0.00,Meteorologica,2013-02-25 13:05:00,
2013-02-25 08:10:00,38.8,27.7,30.03,NNE,33,0.9,5.0,63,0.00,,,0.00,Meteorologica,2013-02-25 13:10:00,
2013-02-25 08:15:00,39.0,27.8,30.03,NNE,18,1.7,4.2,63,0.00,,,0.00,Meteorologica,2013-02-25 13:15:00,
2013-02-25 08:20:00,39.0,27.9,30.03,NNE,16,1.6,4.3,63,0.00,,,0.00,Meteorologica,2013-02-25 13:20:00,
2013-02-25 08:25:00,38.9,27.7,30.04,NNE,26,0.0,3.5,63,0.00,,,0.00,Meteorologica,2013-02-25 13:25:00,
2013-02-25 08:30:00,39.0,27.5,30.03,NNE,32,1.8,5.0,62,0.00,,,0.00,Meteorologica,2013-02-25 13:30:00,
2013-02-25 08:35:00,39.2,28.1,30.04,NNE,23,1.6,4.7,63,0.00,,,0.00,Meteorologica,2013-02-25 13:35:00,
2013-02-25 08:40:00,39.2,27.9,30.03,NNE,31,1.3,4.5,63,0.00,,,0.00,Meteorologica,2013-02-25 13:40:00,
2013-02-25 08:45:00,39.2,27.9,30.03,NNE,18,2.2,3.5,63,0.00,,,0.00,Meteorologica,2013-02-25 13:45:00,
2013-02-25 08:50:00,39.3,28.0,30.03,NNE,23,2.3,4.8,63,0.00,,,0.00,Meteorologica,2013-02-25 13:50:00,
2013-02-25 08:55:00,39.3,28.2,30.04,NNE,18,0.4,3.6,63,0.00,,,0.00,Meteorologica,2013-02-25 13:55:00,
2013-02-25 09:00:00,39.3,28.0,30.04,NNE,16,2.5,4.8,63,0.00,,,0.00,Meteorologica,2013-02-25 14:00:00,
2013-02-25 09:06:00,39.3,28.1,30.03,NNE,23,2.0,4.3,63,0.00,,,0.00,Meteorologica,2013-02-25 14:06:00,
2013-02-25 09:12:00,39.5,28.1,30.03,NNE,15,2.8,4.8,63,0.00,,,0.00,Meteorologica,2013-02-25 14:12:00,
2013-02-25 09:17:00,39.6,28.1,30.03,NNE,19,1.5,5.6,63,0.00,,,0.00,Meteorologica,2013-02-25 14:17:00,
2013-02-25 09:22:00,39.9,28.4,30.03,NNE,24,1.4,4.9,63,0.00,,,0.00,Meteorologica,2013-02-25 14:22:00,
2013-02-25 09:27:00,39.8,28.2,30.03,NNE,14,4.5,5.8,62,0.00,,,0.00,Meteorologica,2013-02-25 14:27:00,
2013-02-25 09:32:00,39.8,28.2,30.04,NNE,29,0.3,6.4,62,0.00,,,0.00,Meteorologica,2013-02-25 14:32:00,
2013-02-25 09:37:00,39.8,28.4,30.04,NNE,18,0.0,4.4,63,0.00,,,0.00,Meteorologica,2013-02-25 14:37:00,
2013-02-25 09:42:00,40.0,28.3,30.04,NNE,23,1.5,5.0,62,0.00,,,0.00,Meteorologica,2013-02-25 14:42:00,
2013-02-25 09:47:00,40.1,28.5,30.03,NE,35,0.1,5.4,62,0.00,,,0.00,Meteorologica,2013-02-25 14:47:00,
2013-02-25 09:52:00,40.3,28.4,30.03,NNE,15,2.0,5.6,62,0.00,,,0.00,Meteorologica,2013-02-25 14:52:00,
2013-02-25 09:57:00,40.3,28.7,30.03,NNE,25,3.2,7.8,62,0.00,,,0.00,Meteorologica,2013-02-25 14:57:00,
2013-02-25 10:02:00,40.5,28.9,30.03,NNE,24,1.1,4.7,62,0.00,,,0.00,Meteorologica,2013-02-25 15:02:00,
2013-02-25 10:07:00,40.7,28.4,30.03,NNE,18,3.2,6.4,61,0.00,,,0.00,Meteorologica,2013-02-25 15:07:00,
2013-02-25 10:12:00,40.7,28.5,30.03,North,7,4.2,6.9,61,0.00,,,0.00,Meteorologica,2013-02-25 15:12:00,
2013-02-25 10:17:00,40.8,28.9,30.03,NE,43,3.0,5.9,62,0.00,,,0.00,Meteorologica,2013-02-25 15:17:00,
2013-02-25 10:22:00,40.9,29.0,30.02,NNE,26,2.7,6.9,62,0.00,,,0.00,Meteorologica,2013-02-25 15:22:00,
2013-02-25 10:27:00,41.1,29.3,30.02,North,8,1.5,7.0,62,0.00,,,0.00,Meteorologica,2013-02-25 15:27:00,
2013-02-25 10:32:00,41.4,28.7,30.01,North,8,4.8,5.3,60,0.00,,,0.00,Meteorologica,2013-02-25 15:32:00,
2013-02-25 10:37:00,41.7,28.9,30.01,North,2,3.4,8.7,60,0.00,,,0.00,Meteorologica,2013-02-25 15:37:00,
2013-02-25 10:42:00,41.8,29.2,30.01,NNE,25,1.7,6.0,60,0.00,,,0.00,Meteorologica,2013-02-25 15:42:00,
2013-02-25 10:47:00,42.1,29.4,30.01,NNE,22,0.5,5.3,60,0.00,,,0.00,Meteorologica,2013-02-25 15:47:00,
2013-02-25 10:52:00,42.3,29.9,30.01,NNE,22,0.0,4.2,61,0.00,,,0.00,Meteorologica,2013-02-25 15:52:00,
2013-02-25 10:57:00,42.5,29.5,30.01,NNW,344,2.2,0.0,59,0.00,,,0.00,Meteorologica,2013-02-25 15:57:00,
2013-02-25 11:02:00,42.5,29.0,30.00,NNE,19,4.0,5.7,58,0.00,,,0.00,Meteorologica,2013-02-25 16:02:00,
2013-02-25 11:07:00,42.7,29.4,30.00,North,8,1.6,6.0,58,0.00,,,0.00,Meteorologica,2013-02-25 16:07:00,
2013-02-25 11:12:00,42.9,29.7,30.01,NNE,31,0.0,5.7,59,0.00,,,0.00,Meteorologica,2013-02-25 16:12:00,
2013-02-25 11:17:00,43.2,30.0,30.01,NNE,30,1.4,2.4,58,0.00,,,0.00,Meteorologica,2013-02-25 16:17:00,
2013-02-25 11:22:00,43.3,29.7,30.00,NNE,18,1.7,3.7,58,0.00,,,0.00,Meteorologica,2013-02-25 16:22:00,
2013-02-25 11:27:00,43.4,29.8,30.01,NNE,19,0.9,5.3,58,0.00,,,0.00,Meteorologica,2013-02-25 16:27:00,
2013-02-25 11:32:00,43.5,29.7,30.01,NNE,32,0.0,5.6,58,0.00,,,0.00,Meteorologica,2013-02-25 16:32:00,
2013-02-25 11:37:00,43.7,30.3,30.00,NE,35,2.2,4.4,58,0.00,,,0.00,Meteorologica,2013-02-25 16:37:00,
2013-02-25 11:42:00,43.8,30.1,29.99,NNE,28,0.0,5.5,58,0.00,,,0.00,Meteorologica,2013-02-25 16:42:00,
2013-02-25 11:47:00,44.1,30.5,29.99,North,8,1.5,4.8,58,0.00,,,0.00,Meteorologica,2013-02-25 16:47:00,
2013-02-25 11:53:00,44.4,30.6,29.99,NNE,25,2.3,4.2,58,0.00,,,0.00,Meteorologica,2013-02-25 16:53:00,
2013-02-25 11:58:00,44.8,31.1,29.99,North,5,0.0,5.8,58,0.00,,,0.00,Meteorologica,2013-02-25 16:58:00,
2013-02-25 12:03:00,45.0,31.2,30.00,North,4,1.9,4.0,58,0.00,,,0.00,Meteorologica,2013-02-25 17:03:00,
2013-02-25 12:08:00,45.1,31.0,29.99,North,9,1.6,5.0,57,0.00,,,0.00,Meteorologica,2013-02-25 17:08:00,
2013-02-25 12:13:00,45.4,31.3,29.99,North,358,0.2,4.7,57,0.00,,,0.00,Meteorologica,2013-02-25 17:13:00,
2013-02-25 12:18:00,45.7,31.2,29.98,NE,50,2.0,4.1,56,0.00,,,0.00,Meteorologica,2013-02-25 17:18:00,
2013-02-25 12:23:00,46.3,31.5,29.98,NE,43,2.5,6.4,56,0.00,,,0.00,Meteorologica,2013-02-25 17:23:00,
2013-02-25 12:28:00,46.7,31.4,29.99,NE,39,2.1,5.4,55,0.00,,,0.00,Meteorologica,2013-02-25 17:28:00,
2013-02-25 12:33:00,47.3,32.0,29.98,NNW,347,2.1,6.6,55,0.00,,,0.00,Meteorologica,2013-02-25 17:33:00,
2013-02-25 12:38:00,47.9,32.3,29.98,NNE,17,3.1,6.8,54,0.00,,,0.00,Meteorologica,2013-02-25 17:38:00,
2013-02-25 12:43:00,48.4,31.2,29.98,NNE,15,4.9,5.3,51,0.00,,,0.00,Meteorologica,2013-02-25 17:43:00,
2013-02-25 12:48:00,48.8,32.9,29.98,ENE,66,0.1,6.6,54,0.00,,,0.00,Meteorologica,2013-02-25 17:48:00,
2013-02-25 12:53:00,49.3,32.4,29.98,NNW,331,0.3,5.0,52,0.00,,,0.00,Meteorologica,2013-02-25 17:53:00,
2013-02-25 12:58:00,49.6,32.5,29.97,NE,39,2.8,5.5,51,0.00,,,0.00,Meteorologica,2013-02-25 17:58:00,
2013-02-25 13:03:00,50.3,33.2,29.97,NE,46,0.0,4.9,51,0.00,,,0.00,Meteorologica,2013-02-25 18:03:00,
2013-02-25 13:08:00,51.2,33.0,29.97,SSW,207,1.3,7.9,49,0.00,,,0.00,Meteorologica,2013-02-25 18:08:00,
2013-02-25 13:13:00,51.8,32.6,29.97,NNE,31,3.5,3.5,47,0.00,,,0.00,Meteorologica,2013-02-25 18:13:00,
2013-02-25 13:18:00,52.4,33.6,29.97,ENE,60,0.0,6.1,48,0.00,,,0.00,Meteorologica,2013-02-25 18:18:00,
2013-02-25 13:23:00,52.6,33.5,29.96,East,85,0.1,5.6,48,0.00,,,0.00,Meteorologica,2013-02-25 18:23:00,
2013-02-25 13:28:00,52.8,33.7,29.97,NNE,15,0.7,5.1,48,0.00,,,0.00,Meteorologica,2013-02-25 18:28:00,
2013-02-25 13:33:00,52.9,32.5,29.96,SE,145,2.4,5.0,45,0.00,,,0.00,Meteorologica,2013-02-25 18:33:00,
2013-02-25 13:38:00,53.0,33.5,29.96,SE,124,0.2,4.8,47,0.00,,,0.00,Meteorologica,2013-02-25 18:38:00,
2013-02-25 13:44:00,52.9,33.0,29.95,ENE,74,0.0,7.3,46,0.00,,,0.00,Meteorologica,2013-02-25 18:44:00,
2013-02-25 13:49:00,52.9,33.6,29.96,WNW,285,0.2,2.4,47,0.00,,,0.00,Meteorologica,2013-02-25 18:49:00,
2013-02-25 13:54:00,52.9,34.0,29.95,WNW,285,0.0,0.0,48,0.00,,,0.00,Meteorologica,2013-02-25 18:54:00,
2013-02-25 13:59:00,52.7,34.0,29.95,WNW,285,0.0,0.0,49,0.00,,,0.00,Meteorologica,2013-02-25 18:59:00,
2013-02-25 14:04:00,52.4,34.4,29.95,WNW,285,0.0,0.0,50,0.00,,,0.00,Meteorologica,2013-02-25 19:04:00,
2013-02-25 14:09:00,52.6,34.0,29.94,WSW,239,1.3,4.5,49,0.00,,,0.00,Meteorologica,2013-02-25 19:09:00,
2013-02-25 14:14:00,52.7,34.5,29.94,SW,228,0.7,2.2,49,0.00,,,0.00,Meteorologica,2013-02-25 19:14:00,
2013-02-25 14:19:00,52.8,34.6,29.94,SSW,199,0.0,2.1,50,0.00,,,0.00,Meteorologica,2013-02-25 19:19:00,
2013-02-25 14:24:00,53.0,34.1,29.94,SSE,166,0.0,1.6,48,0.00,,,0.00,Meteorologica,2013-02-25 19:24:00,
2013-02-25 14:29:00,53.0,34.3,29.94,SSE,166,0.0,0.0,49,0.00,,,0.00,Meteorologica,2013-02-25 19:29:00,
2013-02-25 14:34:00,53.1,34.1,29.94,South,177,0.0,4.9,48,0.00,,,0.00,Meteorologica,2013-02-25 19:34:00,
2013-02-25 14:39:00,53.1,34.2,29.94,South,177,0.0,0.0,48,0.00,,,0.00,Meteorologica,2013-02-25 19:39:00,
2013-02-25 14:44:00,53.2,34.1,29.94,South,177,0.0,0.0,48,0.00,,,0.00,Meteorologica,2013-02-25 19:44:00,
2013-02-25 14:49:00,53.1,34.1,29.94,South,177,0.0,0.0,48,0.00,,,0.00,Meteorologica,2013-02-25 19:49:00,
2013-02-25 14:54:00,53.2,34.5,29.93,SW,231,0.0,4.0,49,0.00,,,0.00,Meteorologica,2013-02-25 19:54:00,
2013-02-25 14:59:00,53.1,34.4,29.93,SW,230,0.0,2.7,49,0.00,,,0.00,Meteorologica,2013-02-25 19:59:00,
2013-02-25 15:04:00,53.2,34.0,29.93,SW,230,0.0,0.0,48,0.00,,,0.00,Meteorologica,2013-02-25 20:04:00,
2013-02-25 15:10:00,53.4,34.7,29.93,SW,234,0.0,1.7,49,0.00,,,0.00,Meteorologica,2013-02-25 20:10:00,
2013-02-25 15:15:00,53.4,34.1,29.93,SE,125,0.6,6.4,47,0.00,,,0.00,Meteorologica,2013-02-25 20:15:00,
2013-02-25 15:20:00,53.4,33.5,29.92,SE,125,0.0,2.5,47,0.00,,,0.00,Meteorologica,2013-02-25 20:20:00,
2013-02-25 15:25:00,53.3,34.5,29.92,SE,125,0.0,0.0,48,0.00,,,0.00,Meteorologica,2013-02-25 20:25:00,
2013-02-25 15:30:00,53.3,34.4,29.92,SE,125,0.0,0.0,48,0.00,,,0.00,Meteorologica,2013-02-25 20:30:00,
2013-02-25 15:35:00,53.4,34.4,29.92,SE,125,0.0,0.0,48,0.00,,,0.00,Meteorologica,2013-02-25 20:35:00,
2013-02-25 15:40:00,53.4,33.8,29.92,SE,125,0.0,0.0,47,0.00,,,0.00,Meteorologica,2013-02-25 20:40:00,
2013-02-25 15:45:00,53.5,34.8,29.92,SE,125,0.0,0.0,49,0.00,,,0.00,Meteorologica,2013-02-25 20:45:00,
2013-02-25 15:50:00,53.4,34.2,29.91,SE,125,0.0,0.0,48,0.00,,,0.00,Meteorologica,2013-02-25 20:50:00,
2013-02-25 15:55:00,53.5,34.9,29.91,ESE,122,0.4,0.0,49,0.00,,,0.00,Meteorologica,2013-02-25 20:55:00,
2013-02-25 16:01:00,53.8,35.5,29.91,ESE,108,0.0,4.0,49,0.00,,,0.00,Meteorologica,2013-02-25 21:01:00,
2013-02-25 16:06:00,54.0,34.5,29.90,East,100,0.0,2.0,47,0.00,,,0.00,Meteorologica,2013-02-25 21:06:00,
2013-02-25 16:11:00,54.2,34.1,29.90,NNE,12,0.1,0.0,46,0.00,,,0.00,Meteorologica,2013-02-25 21:11:00,
2013-02-25 16:16:00,54.2,33.8,29.89,ENE,63,0.5,1.9,46,0.00,,,0.00,Meteorologica,2013-02-25 21:16:00,
2013-02-25 16:21:00,54.3,33.7,29.89,NE,55,0.0,2.7,45,0.00,,,0.00,Meteorologica,2013-02-25 21:21:00,
2013-02-25 16:26:00,54.3,34.4,29.89,ENE,59,0.0,0.0,46,0.00,,,0.00,Meteorologica,2013-02-25 21:26:00,
2013-02-25 16:31:00,54.5,34.1,29.88,NE,46,0.8,1.3,46,0.00,,,0.00,Meteorologica,2013-02-25 21:31:00,
2013-02-25 16:36:00,54.4,34.0,29.88,East,84,0.2,1.9,46,0.00,,,0.00,Meteorologica,2013-02-25 21:36:00,
2013-02-25 16:41:00,54.2,33.9,29.88,East,79,0.0,2.9,46,0.00,,,0.00,Meteorologica,2013-02-25 21:41:00,
2013-02-25 16:46:00,54.1,34.0,29.88,East,79,0.0,1.3,46,0.00,,,0.00,Meteorologica,2013-02-25 21:46:00,
2013-02-25 16:51:00,54.2,34.1,29.88,East,79,0.0,0.0,46,0.00,,,0.00,Meteorologica,2013-02-25 21:51:00,
2013-02-25 16:56:00,54.1,34.4,29.87,East,79,0.0,0.0,47,0.00,,,0.00,Meteorologica,2013-02-25 21:56:00,
2013-02-25 17:01:00,54.1,34.3,29.87,East,79,0.0,0.0,47,0.00,,,0.00,Meteorologica,2013-02-25 22:01:00,
2013-02-25 17:06:00,54.3,34.8,29.86,East,79,0.0,0.0,47,0.00,,,0.00,Meteorologica,2013-02-25 22:06:00,
2013-02-25 17:11:00,54.4,34.6,29.86,East,79,0.0,0.0,47,0.00,,,0.00,Meteorologica,2013-02-25 22:11:00,
2013-02-25 17:16:00,54.4,34.6,29.86,ESE,114,0.0,2.9,47,0.00,,,0.00,Meteorologica,2013-02-25 22:16:00,
2013-02-25 17:21:00,54.5,35.2,29.85,ESE,114,0.0,0.0,48,0.00,,,0.00,Meteorologica,2013-02-25 22:21:00,
2013-02-25 17:27:00,54.4,34.9,29.85,ESE,114,0.0,0.0,47,0.00,,,0.00,Meteorologica,2013-02-25 22:27:00,
2013-02-25 17:32:00,54.5,35.0,29.85,ESE,114,0.0,0.0,47,0.00,,,0.00,Meteorologica,2013-02-25 22:32:00,
2013-02-25 17:37:00,54.4,35.3,29.85,ESE,114,0.0,0.0,48,0.00,,,0.00,Meteorologica,2013-02-25 22:37:00,
2013-02-25 17:42:00,54.3,35.8,29.84,ESE,114,0.0,0.0,49,0.00,,,0.00,Meteorologica,2013-02-25 22:42:00,
2013-02-25 17:47:00,54.3,35.5,29.85,ESE,114,0.0,0.0,48,0.00,,,0.00,Meteorologica,2013-02-25 22:47:00,
2013-02-25 17:52:00,54.1,35.3,29.85,ESE,114,0.0,0.0,49,0.00,,,0.00,Meteorologica,2013-02-25 22:52:00,
2013-02-25 17:57:00,54.2,35.3,29.85,ESE,114,0.0,0.0,48,0.00,,,0.00,Meteorologica,2013-02-25 22:57:00,
2013-02-25 18:02:00,54.0,35.6,29.84,ESE,114,0.0,0.0,49,0.00,,,0.00,Meteorologica,2013-02-25 23:02:00,
2013-02-25 18:08:00,54.0,35.9,29.84,ESE,114,0.0,0.0,50,0.00,,,0.00,Meteorologica,2013-02-25 23:08:00,
2013-02-25 18:13:00,53.9,35.6,29.84,ESE,114,0.0,0.0,49,0.00,,,0.00,Meteorologica,2013-02-25 23:13:00,
2013-02-25 18:18:00,53.8,35.4,29.84,ESE,114,0.0,0.0,49,0.00,,,0.00,Meteorologica,2013-02-25 23:18:00,
2013-02-25 18:23:00,53.7,36.9,29.83,ESE,114,0.0,0.0,52,0.00,,,0.00,Meteorologica,2013-02-25 23:23:00,
2013-02-25 18:29:00,53.5,36.8,29.83,ESE,114,0.0,0.0,52,0.00,,,0.00,Meteorologica,2013-02-25 23:29:00,
2013-02-25 18:34:00,53.3,36.8,29.83,ESE,114,0.0,0.0,53,0.00,,,0.00,Meteorologica,2013-02-25 23:34:00,
2013-02-25 18:39:00,53.1,36.4,29.83,ESE,114,0.0,0.0,52,0.00,,,0.00,Meteorologica,2013-02-25 23:39:00,
2013-02-25 18:44:00,52.9,36.5,29.83,ESE,114,0.0,0.0,53,0.00,,,0.00,Meteorologica,2013-02-25 23:44:00,
2013-02-25 18:49:00,52.8,36.6,29.83,ESE,114,0.0,0.0,53,0.00,,,0.00,Meteorologica,2013-02-25 23:49:00,
2013-02-25 18:54:00,52.8,36.2,29.83,ESE,114,0.0,0.0,53,0.00,,,0.00,Meteorologica,2013-02-25 23:54:00,
2013-02-25 18:59:00,52.7,36.8,29.84,ESE,114,0.0,0.0,54,0.00,,,0.00,Meteorologica,2013-02-25 23:59:00,
2013-02-25 19:04:00,52.6,37.1,29.84,ESE,114,0.0,0.0,55,0.00,,,0.00,Meteorologica,2013-02-26 00:04:00,
2013-02-25 19:09:00,52.4,36.9,29.84,ESE,114,0.0,0.0,55,0.00,,,0.00,Meteorologica,2013-02-26 00:09:00,
2013-02-25 19:14:00,52.5,36.5,29.84,ESE,114,0.0,0.0,54,0.00,,,0.00,Meteorologica,2013-02-26 00:14:00,
2013-02-25 19:19:00,52.4,37.0,29.84,ESE,114,0.0,0.0,55,0.00,,,0.00,Meteorologica,2013-02-26 00:19:00,
2013-02-25 19:24:00,52.2,37.1,29.84,ESE,114,0.0,0.0,56,0.00,,,0.00,Meteorologica,2013-02-26 00:24:00,
2013-02-25 19:30:00,52.0,36.5,29.85,ESE,114,0.0,0.0,55,0.00,,,0.00,Meteorologica,2013-02-26 00:30:00,
2013-02-25 19:35:00,52.0,36.5,29.85,SSW,205,2.4,0.0,55,0.00,,,0.00,Meteorologica,2013-02-26 00:35:00,
2013-02-25 19:40:00,52.2,37.3,29.85,East,86,0.0,4.3,56,0.00,,,0.00,Meteorologica,2013-02-26 00:40:00,
2013-02-25 19:45:00,52.1,37.2,29.84,East,86,0.0,0.0,56,0.00,,,0.00,Meteorologica,2013-02-26 00:45:00,
2013-02-25 19:51:00,52.2,37.2,29.84,SW,217,0.0,3.0,56,0.00,,,0.00,Meteorologica,2013-02-26 00:51:00,
2013-02-25 19:56:00,52.3,37.3,29.84,SW,217,0.0,0.0,56,0.00,,,0.00,Meteorologica,2013-02-26 00:56:00,
2013-02-25 20:01:00,52.3,37.4,29.84,SW,217,0.0,0.0,56,0.00,,,0.00,Meteorologica,2013-02-26 01:01:00,
2013-02-25 20:06:00,52.4,37.9,29.84,SW,217,0.0,0.0,57,0.00,,,0.00,Meteorologica,2013-02-26 01:06:00,
2013-02-25 20:12:00,52.5,38.0,29.84,SW,217,0.0,0.0,57,0.00,,,0.00,Meteorologica,2013-02-26 01:12:00,
2013-02-25 20:17:00,52.7,38.4,29.84,SW,215,0.9,0.0,57,0.00,,,0.00,Meteorologica,2013-02-26 01:17:00,
2013-02-25 20:22:00,52.8,38.8,29.84,South,184,0.0,7.4,58,0.00,,,0.00,Meteorologica,2013-02-26 01:22:00,
2013-02-25 20:27:00,53.0,39.4,29.84,SSW,192,3.3,8.5,59,0.00,,,0.00,Meteorologica,2013-02-26 01:27:00,
2013-02-25 20:32:00,53.1,39.8,29.85,SSW,194,2.6,6.5,60,0.00,,,0.00,Meteorologica,2013-02-26 01:32:00,
2013-02-25 20:37:00,53.2,40.2,29.85,South,187,2.1,7.8,61,0.00,,,0.00,Meteorologica,2013-02-26 01:37:00,
2013-02-25 20:42:00,53.2,40.2,29.85,SE,132,0.4,11.8,60,0.00,,,0.00,Meteorologica,2013-02-26 01:42:00,
2013-02-25 20:47:00,53.3,40.5,29.85,ESE,117,1.0,8.0,61,0.00,,,0.00,Meteorologica,2013-02-26 01:47:00,
2013-02-25 20:52:00,53.3,40.6,29.84,SE,141,2.6,4.7,61,0.00,,,0.00,Meteorologica,2013-02-26 01:52:00,
2013-02-25 20:57:00,53.4,40.9,29.84,South,172,3.2,8.1,62,0.00,,,0.00,Meteorologica,2013-02-26 01:57:00,
2013-02-25 21:02:00,53.4,41.1,29.83,ESE,105,4.3,6.6,62,0.00,,,0.00,Meteorologica,2013-02-26 02:02:00,
2013-02-25 21:07:00,53.3,41.2,29.83,NE,35,0.2,8.4,63,0.00,,,0.00,Meteorologica,2013-02-26 02:07:00,
2013-02-25 21:12:00,53.1,41.2,29.83,ESE,105,0.8,12.4,63,0.00,,,0.00,Meteorologica,2013-02-26 02:12:00,
2013-02-25 21:17:00,53.0,41.3,29.83,SSE,149,3.2,7.7,64,0.00,,,0.00,Meteorologica,2013-02-26 02:17:00,
2013-02-25 21:22:00,52.9,41.4,29.83,SSE,149,1.0,13.0,64,0.00,,,0.00,Meteorologica,2013-02-26 02:22:00,
2013-02-25 21:27:00,52.8,41.4,29.83,SSW,202,6.1,10.5,64,0.00,,,0.00,Meteorologica,2013-02-26 02:27:00,
2013-02-25 21:32:00,52.7,41.5,29.82,SSE,160,1.2,10.8,65,0.00,,,0.00,Meteorologica,2013-02-26 02:32:00,
2013-02-25 21:37:00,52.7,41.6,29.81,South,187,1.8,7.6,65,0.00,,,0.00,Meteorologica,2013-02-26 02:37:00,
2013-02-25 21:42:00,52.6,41.7,29.80,SW,231,3.4,8.5,66,0.00,,,0.00,Meteorologica,2013-02-26 02:42:00,
2013-02-25 21:47:00,52.5,41.7,29.80,South,189,1.5,6.4,66,0.00,,,0.00,Meteorologica,2013-02-26 02:47:00,
2013-02-25 21:52:00,52.3,41.7,29.81,SSE,168,1.9,7.0,66,0.00,,,0.00,Meteorologica,2013-02-26 02:52:00,
2013-02-25 21:57:00,52.2,41.7,29.82,South,169,3.1,7.1,67,0.00,,,0.00,Meteorologica,2013-02-26 02:57:00,
2013-02-25 22:02:00,52.1,41.7,29.82,SW,221,5.7,9.6,67,0.00,,,0.00,Meteorologica,2013-02-26 03:02:00,
2013-02-25 22:07:00,52.0,41.9,29.82,South,179,2.3,8.1,68,0.00,,,0.00,Meteorologica,2013-02-26 03:07:00,
2013-02-25 22:12:00,51.9,41.9,29.82,South,170,0.5,8.9,68,0.00,,,0.00,Meteorologica,2013-02-26 03:12:00,
2013-02-25 22:17:00,51.8,42.1,29.82,ESE,120,2.2,2.5,69,0.00,,,0.00,Meteorologica,2013-02-26 03:17:00,
2013-02-25 22:22:00,51.6,42.1,29.80,South,170,1.6,6.0,69,0.00,,,0.00,Meteorologica,2013-02-26 03:22:00,
2013-02-25 22:27:00,51.7,42.4,29.81,ESE,117,0.2,7.0,70,0.00,,,0.00,Meteorologica,2013-02-26 03:27:00,
2013-02-25 22:32:00,51.5,42.3,29.81,SE,127,1.1,7.3,70,0.00,,,0.00,Meteorologica,2013-02-26 03:32:00,
2013-02-25 22:37:00,51.4,42.6,29.81,SSW,198,0.7,5.5,71,0.00,,,0.00,Meteorologica,2013-02-26 03:37:00,
2013-02-25 22:42:00,51.3,42.5,29.80,SE,129,0.3,5.6,71,0.00,,,0.00,Meteorologica,2013-02-26 03:42:00,
2013-02-25 22:47:00,51.3,42.7,29.80,SSE,156,1.3,3.2,72,0.00,,,0.00,Meteorologica,2013-02-26 03:47:00,
2013-02-25 22:52:00,51.2,43.0,29.80,ESE,122,3.4,5.2,73,0.00,,,0.00,Meteorologica,2013-02-26 03:52:00,
2013-02-25 22:57:00,51.2,43.1,29.80,ESE,110,2.7,7.3,73,0.00,,,0.00,Meteorologica,2013-02-26 03:57:00,
2013-02-25 23:02:00,51.1,43.0,29.80,SE,129,2.6,9.8,73,0.00,,,0.00,Meteorologica,2013-02-26 04:02:00,
2013-02-25 23:07:00,51.1,43.2,29.79,SSE,159,3.4,8.4,74,0.00,,,0.00,Meteorologica,2013-02-26 04:07:00,
2013-02-25 23:12:00,51.1,43.3,29.78,ESE,108,3.4,9.7,74,0.00,,,0.00,Meteorologica,2013-02-26 04:12:00,
2013-02-25 23:17:00,51.0,43.4,29.78,SSW,196,2.3,7.1,74,0.00,,,0.00,Meteorologica,2013-02-26 04:17:00,
2013-02-25 23:23:00,50.9,43.4,29.79,SSW,211,1.0,7.6,75,0.00,,,0.00,Meteorologica,2013-02-26 04:23:00,
2013-02-25 23:27:00,50.9,43.6,29.79,SSW,204,2.2,10.9,75,0.00,,,0.00,Meteorologica,2013-02-26 04:27:00,
2013-02-25 23:33:00,51.0,43.8,29.79,SSW,195,6.2,8.4,76,0.00,,,0.00,Meteorologica,2013-02-26 04:33:00,
2013-02-25 23:38:00,50.9,43.7,29.78,South,183,4.0,9.6,76,0.00,,,0.00,Meteorologica,2013-02-26 04:38:00,
2013-02-25 23:43:00,50.9,43.8,29.78,SSW,193,5.3,8.0,76,0.00,,,0.00,Meteorologica,2013-02-26 04:43:00,
2013-02-25 23:48:00,50.8,43.8,29.78,SSW,197,2.4,12.2,76,0.00,,,0.00,Meteorologica,2013-02-26 04:48:00,
2013-02-25 23:53:00,50.8,43.9,29.78,SSW,212,0.1,10.5,76,0.00,,,0.00,Meteorologica,2013-02-26 04:53:00,
2013-02-25 23:58:00,50.8,43.9,29.78,SSW,207,2.7,5.2,77,0.00,,,0.00,Meteorologica,2013-02-26 04:58:00,